2024-013E

Last updated on Wed Feb 05 2025 00:02:08 GMT+0000 (Coordinated Universal Time)

1 62056U 24013E 25035.31569223 .00212186 00000+0 90760-3 0 9999 2 62056 41.4671 100.5307 0018061 34.6120 325.5899 15.83490158 13281
UTC large
Height (km)
Speed (km/s)
/
Latitude / Longitude
Inclination (degrees)
Orbital Period (minutes)
Azimuth
Elevation
Range (km)
Doppler Factor

Next 0 passes for location: London (51.5072 / 0.1276)

Sorry there are no passes over London.